Location: Bruch
(44.2051°N, 0.4120°E)
Time: 05:22:32
(UTC+00:00)

USA 234 - Pass Details

Date: 29 November 2020
Orbit: 1099 x 1108 km, 123.0° (Epoch: 25 January)

Event Time Altitude Azimuth Distance (km) Brightness Sun altitude
Rises 05:50:28 0° 51° (NE) 3,920 6.7 -14.2°
Reaches altitude 10° 05:53:00 10° 55° (NE) 2,960 6.1 -13.8°
Maximum altitude 05:59:28 62° 136° (SE) 1,223 3.8 -12.7°
Drops below altitude 10° 06:05:54 10° 216° (SW) 2,950 5.3 -11.6°
Sets 06:08:25 0° 220° (SW) 3,906 5.9 -11.1°
